Time,TemperatureF,DewpointF,PressureIn,WindDirection,WindDirectionDegrees,WindSpeedMPH,WindSpeedGustMPH,Humidity,HourlyPrecipIn,Conditions,Clouds,dailyrainin,SolarRadiationWatts/m^2,SoftwareType,DateUTC
2014-01-02 00:09:00,-19.4,-29.7,23.34,NNE,28,0.0,0.0,58,0.00,,,0.00,0,Wunderground v.1.15,2014-01-02 05:09:00,
2014-01-02 00:19:00,-19.4,-29.3,23.34,NNE,28,0.0,0.0,59,0.00,,,0.00,0,Wunderground v.1.15,2014-01-02 05:19:00,
2014-01-02 00:39:00,-20.6,-30.5,23.34,NNE,28,0.0,0.0,59,0.00,,,0.00,0,Wunderground v.1.15,2014-01-02 05:39:00,
2014-01-02 00:49:00,-20.9,-30.5,23.34,NNE,28,0.0,0.0,60,0.00,,,0.00,0,Wunderground v.1.15,2014-01-02 05:49:00,
2014-01-02 01:09:00,-21.5,-31.0,23.34,NNE,28,0.0,0.0,60,0.00,,,0.00,0,Wunderground v.1.15,2014-01-02 06:09:00,
2014-01-02 01:19:00,-21.8,-31.0,23.34,NNE,28,0.0,0.0,61,0.00,,,0.00,0,Wunderground v.1.15,2014-01-02 06:19:00,
2014-01-02 01:39:00,-22.1,-31.3,23.34,NNE,28,0.0,0.0,61,0.00,,,0.00,0,Wunderground v.1.15,2014-01-02 06:39:00,
2014-01-02 01:49:00,-21.8,-30.7,23.34,NNE,28,0.0,0.0,62,0.00,,,0.00,0,Wunderground v.1.15,2014-01-02 06:49:00,
2014-01-02 02:09:00,-22.1,-31.3,23.34,NNE,28,0.0,0.0,61,0.00,,,0.00,0,Wunderground v.1.15,2014-01-02 07:09:00,
2014-01-02 02:19:00,-22.1,-31.3,23.34,NNE,28,0.0,0.0,61,0.00,,,0.00,0,Wunderground v.1.15,2014-01-02 07:19:00,
2014-01-02 02:39:00,-21.5,-31.0,23.34,NNE,28,0.0,1.0,60,0.00,,,0.00,0,Wunderground v.1.15,2014-01-02 07:39:00,
2014-01-02 02:49:00,-21.5,-31.3,23.34,NNE,28,0.0,0.0,59,0.00,,,0.00,0,Wunderground v.1.15,2014-01-02 07:49:00,
2014-01-02 03:09:00,-21.2,-31.4,23.34,NNE,28,0.0,0.0,58,0.00,,,0.00,0,Wunderground v.1.15,2014-01-02 08:09:00,
2014-01-02 03:19:00,-21.5,-32.0,23.34,NNE,28,0.0,0.0,57,0.00,,,0.00,0,Wunderground v.1.15,2014-01-02 08:19:00,
2014-01-02 03:29:00,-21.5,-32.0,23.34,NNE,28,0.0,0.0,57,0.00,,,0.00,0,Wunderground v.1.15,2014-01-02 08:29:00,
2014-01-02 03:39:00,-20.9,-31.4,23.34,NNE,28,0.0,0.0,57,0.00,,,0.00,0,Wunderground v.1.15,2014-01-02 08:39:00,
2014-01-02 03:49:00,-21.2,-32.0,23.34,NNE,28,0.0,0.0,56,0.00,,,0.00,0,Wunderground v.1.15,2014-01-02 08:49:00,
2014-01-02 04:09:00,-20.9,-31.7,23.34,NNE,28,1.0,1.0,56,0.00,,,0.00,0,Wunderground v.1.15,2014-01-02 09:09:00,
2014-01-02 04:19:00,-21.2,-32.3,23.34,NNE,28,1.0,2.0,55,0.00,,,0.00,0,Wunderground v.1.15,2014-01-02 09:19:00,
2014-01-02 04:39:00,-20.0,-30.9,23.34,ENE,57,2.0,4.0,56,0.00,,,0.00,0,Wunderground v.1.15,2014-01-02 09:39:00,
2014-01-02 04:49:00,-19.4,-30.6,23.34,ENE,61,2.0,2.0,55,0.00,,,0.00,0,Wunderground v.1.15,2014-01-02 09:49:00,
2014-01-02 05:09:00,-19.1,-31.0,23.34,ENE,65,2.0,2.0,53,0.00,,,0.00,0,Wunderground v.1.15,2014-01-02 10:09:00,
2014-01-02 05:18:00,-19.7,-31.6,23.34,ENE,66,1.0,2.0,53,0.00,,,0.00,0,Wunderground v.1.15,2014-01-02 10:18:00,
2014-01-02 05:39:00,-20.9,-32.7,23.34,ENE,65,1.0,1.0,53,0.00,,,0.00,0,Wunderground v.1.15,2014-01-02 10:39:00,
2014-01-02 05:48:00,-21.5,-32.9,23.34,ENE,65,0.0,0.0,54,0.00,,,0.00,0,Wunderground v.1.15,2014-01-02 10:48:00,
2014-01-02 06:09:00,-21.8,-32.9,23.34,ENE,65,1.0,1.0,55,0.00,,,0.00,0,Wunderground v.1.15,2014-01-02 11:09:00,
2014-01-02 06:19:00,-22.1,-33.2,23.34,ENE,65,0.0,0.0,55,0.00,,,0.00,0,Wunderground v.1.15,2014-01-02 11:19:00,
2014-01-02 06:38:00,-22.4,-33.5,23.34,ENE,65,0.0,0.0,55,0.00,,,0.00,0,Wunderground v.1.15,2014-01-02 11:38:00,
2014-01-02 06:49:00,-22.6,-33.6,23.34,ENE,65,0.0,0.0,55,0.00,,,0.00,0,Wunderground v.1.15,2014-01-02 11:49:00,
2014-01-02 07:09:00,-22.4,-33.1,23.34,ENE,65,1.0,1.0,56,0.00,,,0.00,0,Wunderground v.1.15,2014-01-02 12:09:00,
2014-01-02 07:18:00,-22.6,-33.3,23.34,ENE,65,1.0,4.0,56,0.00,,,0.00,0,Wunderground v.1.15,2014-01-02 12:18:00,
2014-01-02 07:38:00,-23.0,-34.0,23.34,ENE,64,1.0,1.0,55,0.00,,,0.00,5,Wunderground v.1.15,2014-01-02 12:38:00,
2014-01-02 07:48:00,-23.0,-33.7,23.34,ENE,65,1.0,2.0,56,0.00,,,0.00,16,Wunderground v.1.15,2014-01-02 12:48:00,
2014-01-02 08:09:00,-22.6,-33.6,23.34,ENE,65,0.0,0.0,55,0.00,,,0.00,28,Wunderground v.1.15,2014-01-02 13:09:00,
2014-01-02 08:19:00,-22.4,-33.5,23.34,ENE,64,0.0,1.0,55,0.00,,,0.00,46,Wunderground v.1.15,2014-01-02 13:19:00,
2014-01-02 08:39:00,-22.1,-33.2,23.34,ENE,65,0.0,0.0,55,0.00,,,0.00,63,Wunderground v.1.15,2014-01-02 13:39:00,
2014-01-02 08:48:00,-21.8,-32.9,23.34,ENE,65,1.0,1.0,55,0.00,,,0.00,60,Wunderground v.1.15,2014-01-02 13:48:00,
2014-01-02 09:08:00,-21.2,-33.0,23.33,ENE,65,2.0,2.0,53,0.00,,,0.00,84,Wunderground v.1.15,2014-01-02 14:08:00,
2014-01-02 09:18:00,-20.9,-33.1,23.33,ENE,67,2.0,2.0,52,0.00,,,0.00,109,Wunderground v.1.15,2014-01-02 14:18:00,
2014-01-02 09:38:00,-20.0,-32.9,23.33,NE,56,3.0,3.0,50,0.00,,,0.00,107,Wunderground v.1.15,2014-01-02 14:38:00,
2014-01-02 09:48:00,-20.0,-33.3,23.33,ENE,67,4.0,5.0,49,0.00,,,0.00,113,Wunderground v.1.15,2014-01-02 14:48:00,
2014-01-02 10:08:00,-19.7,-33.8,23.33,ENE,65,3.0,3.0,47,0.00,,,0.00,130,Wunderground v.1.15,2014-01-02 15:08:00,
2014-01-02 10:18:00,-19.4,-33.5,23.33,NE,55,3.0,3.0,47,0.00,,,0.00,163,Wunderground v.1.15,2014-01-02 15:18:00,
2014-01-02 10:38:00,-18.5,-32.6,23.33,ENE,66,2.0,3.0,47,0.00,,,0.00,195,Wunderground v.1.15,2014-01-02 15:38:00,
2014-01-02 10:48:00,-18.2,-32.0,23.33,NE,54,3.0,4.0,48,0.00,,,0.00,207,Wunderground v.1.15,2014-01-02 15:48:00,
2014-01-02 11:08:00,-18.2,-32.4,23.32,ENE,59,5.0,7.0,47,0.00,,,0.00,204,Wunderground v.1.15,2014-01-02 16:08:00,
2014-01-02 11:18:00,-17.9,-32.1,23.32,NE,53,5.0,5.0,47,0.00,,,0.00,206,Wunderground v.1.15,2014-01-02 16:18:00,
2014-01-02 11:38:00,-17.3,-31.5,23.32,SE,125,4.0,7.0,47,0.00,,,0.00,232,Wunderground v.1.15,2014-01-02 16:38:00,
2014-01-02 11:48:00,-17.3,-32.7,23.32,NE,52,5.0,6.0,44,0.00,,,0.00,220,Wunderground v.1.15,2014-01-02 16:48:00,
2014-01-02 12:08:00,-17.0,-32.4,23.31,ENE,63,5.0,5.0,44,0.00,,,0.00,220,Wunderground v.1.15,2014-01-02 17:08:00,
2014-01-02 12:18:00,-17.0,-32.0,23.31,ENE,69,5.0,6.0,45,0.00,,,0.00,221,Wunderground v.1.15,2014-01-02 17:18:00,
2014-01-02 12:38:00,-16.5,-32.0,23.31,ENE,72,5.0,5.0,44,0.00,,,0.00,197,Wunderground v.1.15,2014-01-02 17:38:00,
2014-01-02 12:48:00,-16.2,-31.7,23.31,East,85,5.0,5.0,44,0.00,,,0.00,209,Wunderground v.1.15,2014-01-02 17:48:00,
2014-01-02 13:09:00,-15.9,-31.0,23.31,ENE,58,5.0,6.0,45,0.00,,,0.00,155,Wunderground v.1.15,2014-01-02 18:09:00,
2014-01-02 13:19:00,-15.9,-30.6,23.31,ENE,76,6.0,6.0,46,0.00,,,0.00,163,Wunderground v.1.15,2014-01-02 18:19:00,
2014-01-02 13:39:00,-15.4,-30.2,23.31,East,86,5.0,5.0,46,0.00,,,0.00,137,Wunderground v.1.15,2014-01-02 18:39:00,
2014-01-02 13:49:00,-15.4,-30.2,23.30,ENE,74,5.0,6.0,46,0.00,,,0.00,120,Wunderground v.1.15,2014-01-02 18:49:00,
2014-01-02 14:09:00,-14.9,-29.7,23.30,NE,46,5.0,5.0,46,0.00,,,0.00,120,Wunderground v.1.15,2014-01-02 19:09:00,
2014-01-02 14:19:00,-14.7,-29.9,23.30,East,82,5.0,6.0,45,0.00,,,0.00,100,Wunderground v.1.15,2014-01-02 19:19:00,
2014-01-02 14:30:00,-14.4,-30.0,23.30,ENE,74,5.0,9.0,44,0.00,,,0.00,88,Wunderground v.1.15,2014-01-02 19:30:00,
2014-01-02 14:39:00,-14.1,-30.2,23.30,ENE,69,5.0,5.0,43,0.00,,,0.00,72,Wunderground v.1.15,2014-01-02 19:39:00,
2014-01-02 14:49:00,-13.9,-29.6,23.30,ENE,57,4.0,5.0,44,0.00,,,0.00,63,Wunderground v.1.15,2014-01-02 19:49:00,
2014-01-02 15:09:00,-13.6,-28.5,23.29,East,80,4.0,4.0,46,0.00,,,0.00,53,Wunderground v.1.15,2014-01-02 20:09:00,
2014-01-02 15:19:00,-13.4,-28.3,23.29,NNE,30,5.0,5.0,46,0.00,,,0.00,42,Wunderground v.1.15,2014-01-02 20:19:00,
2014-01-02 15:39:00,-13.4,-27.1,23.29,ENE,69,4.0,5.0,49,0.00,,,0.00,25,Wunderground v.1.15,2014-01-02 20:39:00,
2014-01-02 15:49:00,-13.4,-27.1,23.29,ENE,61,4.0,4.0,49,0.00,,,0.00,21,Wunderground v.1.15,2014-01-02 20:49:00,
2014-01-02 16:09:00,-12.9,-26.7,23.29,ENE,78,4.0,4.0,49,0.00,,,0.00,7,Wunderground v.1.15,2014-01-02 21:09:00,
2014-01-02 16:19:00,-12.6,-26.4,23.29,ENE,69,4.0,4.0,49,0.00,,,0.00,0,Wunderground v.1.15,2014-01-02 21:19:00,
2014-01-02 16:39:00,-12.3,-26.1,23.29,NNW,344,5.0,6.0,49,0.00,,,0.00,0,Wunderground v.1.15,2014-01-02 21:39:00,
2014-01-02 16:49:00,-12.3,-25.7,23.29,ENE,72,4.0,4.0,50,0.00,,,0.00,0,Wunderground v.1.15,2014-01-02 21:49:00,
2014-01-02 17:09:00,-12.1,-25.9,23.29,ENE,75,4.0,6.0,49,0.00,,,0.00,0,Wunderground v.1.15,2014-01-02 22:09:00,
2014-01-02 17:19:00,-11.8,-25.6,23.29,ENE,74,4.0,4.0,49,0.00,,,0.00,0,Wunderground v.1.15,2014-01-02 22:19:00,
2014-01-02 17:30:00,-11.6,-25.8,23.29,ESE,115,5.0,5.0,48,0.00,,,0.00,0,Wunderground v.1.15,2014-01-02 22:30:00,
2014-01-02 17:39:00,-11.3,-25.6,23.29,East,91,5.0,5.0,48,0.00,,,0.00,0,Wunderground v.1.15,2014-01-02 22:39:00,
2014-01-02 17:49:00,-11.3,-25.6,23.29,ENE,71,7.0,7.0,48,0.00,,,0.00,0,Wunderground v.1.15,2014-01-02 22:49:00,
2014-01-02 18:00:00,-11.1,-25.4,23.29,East,100,7.0,7.0,48,0.00,,,0.00,0,Wunderground v.1.15,2014-01-02 23:00:00,
2014-01-02 18:09:00,-11.3,-25.2,23.29,ENE,78,7.0,10.0,49,0.00,,,0.00,0,Wunderground v.1.15,2014-01-02 23:09:00,
2014-01-02 18:19:00,-11.1,-25.0,23.28,ENE,62,7.0,9.0,49,0.00,,,0.00,0,Wunderground v.1.15,2014-01-02 23:19:00,
2014-01-02 18:39:00,-10.8,-24.3,23.28,NNE,24,5.0,12.0,50,0.00,,,0.00,0,Wunderground v.1.15,2014-01-02 23:39:00,
2014-01-02 18:49:00,-10.8,-24.0,23.28,ENE,74,7.0,7.0,51,0.00,,,0.00,0,Wunderground v.1.15,2014-01-02 23:49:00,
2014-01-02 19:09:00,-10.6,-23.4,23.28,ENE,72,7.0,8.0,52,0.00,,,0.00,0,Wunderground v.1.15,2014-01-03 00:09:00,
2014-01-02 19:19:00,-10.4,-22.9,23.28,ENE,59,7.0,10.0,53,0.00,,,0.00,0,Wunderground v.1.15,2014-01-03 00:19:00,
2014-01-02 19:39:00,-10.1,-22.2,23.28,NNE,28,7.0,12.0,54,0.00,,,0.00,0,Wunderground v.1.15,2014-01-03 00:39:00,
2014-01-02 19:49:00,-10.1,-22.2,23.27,NE,44,6.0,8.0,54,0.00,,,0.00,0,Wunderground v.1.15,2014-01-03 00:49:00,
2014-01-02 20:09:00,-9.9,-22.0,23.27,ENE,62,5.0,8.0,54,0.00,,,0.00,0,Wunderground v.1.15,2014-01-03 01:09:00,
2014-01-02 20:19:00,-9.9,-22.0,23.27,ENE,72,6.0,6.0,54,0.00,,,0.00,0,Wunderground v.1.15,2014-01-03 01:19:00,
2014-01-02 20:39:00,-9.9,-22.0,23.27,ENE,65,5.0,7.0,54,0.00,,,0.00,0,Wunderground v.1.15,2014-01-03 01:39:00,
2014-01-02 20:49:00,-9.9,-21.7,23.27,ENE,63,6.0,7.0,55,0.00,,,0.00,0,Wunderground v.1.15,2014-01-03 01:49:00,
2014-01-02 20:59:00,-9.9,-21.7,23.27,ENE,67,7.0,7.0,55,0.00,,,0.00,0,Wunderground v.1.15,2014-01-03 01:59:00,
2014-01-02 21:09:00,-9.9,-21.7,23.27,ENE,73,6.0,6.0,55,0.00,,,0.00,0,Wunderground v.1.15,2014-01-03 02:09:00,
2014-01-02 21:19:00,-9.9,-21.3,23.27,ENE,72,5.0,7.0,56,0.00,,,0.00,0,Wunderground v.1.15,2014-01-03 02:19:00,
2014-01-02 21:29:00,-9.9,-21.3,23.27,ENE,59,6.0,6.0,56,0.00,,,0.00,0,Wunderground v.1.15,2014-01-03 02:29:00,
2014-01-02 21:39:00,-9.9,-21.3,23.27,ENE,60,5.0,5.0,56,0.00,,,0.00,0,Wunderground v.1.15,2014-01-03 02:39:00,
2014-01-02 21:49:00,-9.9,-21.3,23.27,NE,50,5.0,7.0,56,0.00,,,0.00,0,Wunderground v.1.15,2014-01-03 02:49:00,
2014-01-02 22:09:00,-9.9,-21.0,23.27,ENE,74,6.0,6.0,57,0.00,,,0.00,0,Wunderground v.1.15,2014-01-03 03:09:00,
2014-01-02 22:19:00,-9.7,-20.8,23.27,East,82,5.0,7.0,57,0.00,,,0.00,0,Wunderground v.1.15,2014-01-03 03:19:00,
2014-01-02 22:39:00,-9.7,-20.5,23.27,ENE,59,5.0,5.0,58,0.00,,,0.00,0,Wunderground v.1.15,2014-01-03 03:39:00,
2014-01-02 22:49:00,-9.7,-20.8,23.27,NNE,32,5.0,6.0,57,0.00,,,0.00,0,Wunderground v.1.15,2014-01-03 03:49:00,
2014-01-02 23:09:00,-9.9,-20.7,23.26,NE,48,5.0,7.0,58,0.00,,,0.00,0,Wunderground v.1.15,2014-01-03 04:09:00,
2014-01-02 23:19:00,-9.9,-21.0,23.26,NNE,31,6.0,7.0,57,0.00,,,0.00,0,Wunderground v.1.15,2014-01-03 04:19:00,
2014-01-02 23:39:00,-10.1,-20.9,23.26,NE,44,7.0,10.0,58,0.00,,,0.00,0,Wunderground v.1.15,2014-01-03 04:39:00,
2014-01-02 23:49:00,-10.1,-20.9,23.26,NE,39,7.0,8.0,58,0.00,,,0.00,0,Wunderground v.1.15,2014-01-03 04:49:00,